Regional Weather Roundup
Issued by NWS Kansas City/Pleasant Hill, MO

Home | Current Version | Previous Version | Text Only | Print | Product List | Glossary On
Versions: 1 2 3 4 5 6 7 8 9 10 11 12 13 14 15 16 17 18 19 20 21 22 23 24 25 26 27 28 29 30 31 32 33 34 35 36 37 38 39 40 41 42 43 44 45 46 47 48 49 50
000
ASUS43 KEAX 230011
RWREAX

WEATHER ROUNDUP FOR EASTERN KANSAS AND NORTHWEST MISSOURI
NATIONAL WEATHER SERVICE KANSAS CITY/PLEASANT HILL MO
700 PM CDT TUE JUL 22 2014

KSZ040-057-103>105-MOZ028-029-037-043-230100-
...KANSAS CITY METROPOLITAN AREA...

CITY           SKY/WX    TMP DP  RH WIND       PRES   REMARKS
K.C. INTL      MOSUNNY   95  78  58 NW5       30.01S HX 111
6HR MIN TEMP:  90; 6HR MAX TEMP:  96;

K.C. DOWNTOWN  SUNNY     97  73  45 W6        29.98S HX 107
6HR MIN TEMP:  94; 6HR MAX TEMP:  99;

LEES SUMMIT    MOSUNNY   95  77  55 W5        30.01S HX 109
6HR MIN TEMP:  90; 6HR MAX TEMP:  95;

OLATHE - IXD   MOSUNNY   97  70  41 SW12      30.01F HX 103
6HR MIN TEMP:  93; 6HR MAX TEMP:  99;

OLATHE - OJC   MOSUNNY   93  75  55 SW8       30.00F HX 104
6HR MIN TEMP:  89; 6HR MAX TEMP:  96;

LAWRENCE       SUNNY     99  72  41 SW6       29.99S HX 108

$$

MOZ001>008-011>017-020>025-030>033-038>040-044>046-053-054-230100-
...NORTHERN AND CENTRAL MISSOURI...

CITY           SKY/WX    TMP DP  RH WIND       PRES   REMARKS
ST. JOSEPH     MOSUNNY   92  81  70 N12       30.01R HX 112
6HR MIN TEMP:  90; 6HR MAX TEMP:  95;

MOSBY          CLEAR     93  73  52 NW6       30.00R HX 102
WARRENSBURG    MOSUNNY   90  79  70 S3        30.00S HX 105
WHITEMAN AFB   MOSUNNY   91  76  62 W7        30.00R HX 103
6HR MIN TEMP:  89; 6HR MAX TEMP:  92;

CLINTON        MOSUNNY   91  81  70 CALM      30.01R HX 110
SEDALIA        MOSUNNY   91  78  65 W6        30.01R HAZE    HX 106
6HR MIN TEMP:  90; 6HR MAX TEMP:  94;

WARSAW         NOT AVBL
MARSHALL       MOSUNNY   91  81  70 W5        30.01R HAZE    HX 110
CHILLICOTHE      N/A     94  79  61 NW5       30.01R HX 111
6HR MIN TEMP:  90; 6HR MAX TEMP:  96;

MOBERLY        PTSUNNY   91  77  62 W3        30.02R HX 105
KIRKSVILLE     PTSUNNY   91  80  70 NW5       30.02R HX 109
6HR MIN TEMP:  87; 6HR MAX TEMP:  93;


$$

MOZ041-047>049-056>058-063>065-088>090-097-230100-
...EASTERN AND SOUTHERN MISSOURI...

CITY           SKY/WX    TMP DP  RH WIND       PRES   REMARKS
ST. LOUIS INTL PTSUNNY   91  72  53 S7        30.01S HX  98
6HR MIN TEMP:  90; 6HR MAX TEMP:  93;

SPIRIT OF STL  PTSUNNY   87  73  62 SE5       29.99S HX  94
COLUMBIA       MOSUNNY   92  76  59 W7        30.01R HX 104
JEFFERSON CITY MOSUNNY   93  77  59 SW6       29.98R HX 107
MEXICO         PTSUNNY   91  82  75 W5        30.01R HX 114
HANNIBAL       CLOUDY    88  77  70 SE3       30.00S HAZE    HX 100
ROLLA          SUNNY     90  72  55 SW6       30.02R HX  97
LEBANON        MOSUNNY   90  75  62 SW8       30.05R HX 100
OSAGE BEACH    MOSUNNY   91  75  59 SW5       30.00S HX 102
SPRINGFIELD    MOSUNNY   90  76  63 SW7       30.04F HX 101
BRANSON        MOSUNNY   93  72  49 CALM      30.06F HX 100
NEVADA         MOSUNNY   91  77  62 SW5       30.02S HX 105
JOPLIN         MOSUNNY   93  73  52 SW8       30.03F HX 102
WEST PLAINS    MOSUNNY   85  71  63 S3        30.08R HX  90
MALDEN         SUNNY     88  68  51 W7        30.04R HX  91

$$

IAZ060-094-KSZ022-034>040-054-083-096-NEZ052-066-093-230100-
...KANSAS...SOUTHEAST NEBRASKA AND IOWA...

CITY           SKY/WX    TMP DP  RH WIND       PRES   REMARKS
TOPEKA         SUNNY    102  68  33 NW7       29.99S HX 108
6HR MIN TEMP:  97; 6HR MAX TEMP: 103;

MANHATTAN      SUNNY    101  67  32 W6        30.00S HX 106
EMPORIA        MOSUNNY   97  66  36 SW5       30.03R HX 100
CHANUTE        MOSUNNY   93  73  52 SW6       30.03R HX 102
WICHITA        PTSUNNY   94  71  47 S10       30.04S HX 101
OMAHA          MOSUNNY   85  68  56 N18       30.09R
LINCOLN        SUNNY     89  69  51 NE14      30.10R HX  93
FALLS CITY     SUNNY     90  80  72 N10       30.03R HX 107
LAMONI         MOSUNNY   88  77  69 N15       30.04R HX 100
DES MOINES     PTSUNNY   85  70  60 N10       30.03S

$$




USA.gov is the U.S. government's official web portal to all federal, state and local government web resources and services.